Location: Beaver Brook Station
(42.3793°N, 71.2203°W)
Time: 07:36:36
(UTC+00:00)

USA 215 - Pass Details

Date: 29 October 2020
Orbit: 1102 x 1106 km, 123.0° (Epoch: 23 November)

Event Time Altitude Azimuth Distance (km) Brightness Sun altitude
Exits shadow 23:32:11 23° 45° (NE) 2,178 4.4 -21.0°
Maximum altitude 23:34:30 28° 13° (NNE) 1,948 4.4 -21.4°
Drops below altitude 10° 23:39:50 10° 318° (NW) 2,965 6.1 -22.4°
Sets 23:42:40 0° 307° (NW) 3,924 7.0 -22.9°
